HB9EYW-6 Weather Reports


Display with metric or nautical units.
time (UTC)temp
F
wind
direction
speed
MPH
gust
MPH
rain 1hr
in
rain 24hr
in
rain mn
in
humidity
%
barometer
mb
20260505121504 69 93 0.0 3.0 0.00 0.13 0.01 49
20260505121004 69 90 0.0 3.0 0.00 0.13 0.01 50
20260505120504 70 110 0.0 4.0 0.00 0.13 0.01 48
20260505120005 70 143 0.0 4.0 0.00 0.13 0.01 48
20260505115504 70 151 1.0 4.0 0.00 0.13 0.01 51
20260505115004 70 139 0.0 2.0 0.00 0.13 0.01 52
20260505114504 69 106 0.0 3.0 0.00 0.13 0.01 54
20260505114004 69 114 0.0 3.0 0.00 0.13 0.01 55
20260505113504 69 176 1.0 3.0 0.00 0.13 0.01 55
20260505113004 68 160 1.0 2.0 0.00 0.13 0.01 56
20260505112504 68 147 0.0 2.0 0.00 0.13 0.01 59
20260505112004 67 358 0.0 2.0 0.00 0.13 0.01 61
20260505111504 66 308 0.0 2.0 0.00 0.13 0.01 63
20260505111004 65 232 0.0 2.0 0.00 0.13 0.01 66
20260505110504 64 219 0.0 1.0 0.00 0.13 0.01 71
20260505102004 62 277 0.0 2.0 0.00 0.13 0.01 70
20260505101504 62 202 0.0 1.0 0.00 0.13 0.01 71
20260505101004 62 225 0.0 1.0 0.00 0.13 0.01 70
20260505100504 62 319 0.0 2.0 0.00 0.13 0.01 73
20260505100004 62 293 0.0 2.0 0.00 0.13 0.01 73
20260505095504 61 284 0.0 2.0 0.00 0.13 0.01 72
20260505095004 61 270 0.0 2.0 0.00 0.13 0.01 72
20260505094504 61 270 0.0 2.0 0.00 0.13 0.01 72
20260505094004 61 265 0.0 2.0 0.00 0.13 0.01 73
20260505093504 61 143 0.0 2.0 0.00 0.13 0.01 74
20260505093004 61 145 0.0 2.0 0.00 0.13 0.01 74
20260505092504 61 303 0.0 2.0 0.00 0.13 0.01 75
20260505092004 61 276 0.0 2.0 0.00 0.13 0.01 76
20260505091504 61 225 0.0 2.0 0.00 0.13 0.01 77
20260505091004 61 135 0.0 1.0 0.00 0.13 0.01 77
20260505090504 60 198 0.0 2.0 0.00 0.13 0.01 78
20260505090004 60 182 0.0 2.0 0.00 0.13 0.01 78
20260505085504 60 152 0.0 2.0 0.00 0.13 0.01 79
20260505085004 60 180 0.0 1.0 0.00 0.13 0.01 81
20260505084504 60 163 0.0 1.0 0.00 0.13 0.01 82
20260505084004 60 135 0.0 1.0 0.00 0.13 0.01 83
20260505083504 60 135 0.0 1.0 0.00 0.13 0.01 83
20260505083004 60 135 0.0 1.0 0.00 0.13 0.01 84
20260505082504 60 135 0.0 1.0 0.01 0.13 0.01 85
20260505082004 59 135 0.0 1.0 0.01 0.13 0.01 85
20260505081504 59 0 0.0 0.0 0.01 0.13 0.01 86
20260505081004 58 0 0.0 0.0 0.01 0.13 0.01 86
20260505080504 58 0 0.0 0.0 0.01 0.13 0.01 87
20260505080004 58 225 0.0 1.0 0.01 0.13 0.01 87
20260505075504 58 247 0.0 1.0 0.01 0.13 0.01 87
20260505075004 58 278 0.0 1.0 0.01 0.13 0.01 88
20260505074504 58 360 0.0 1.0 0.01 0.13 0.01 88
20260505074004 57 225 0.0 1.0 0.01 0.13 0.01 89
20260505073504 57 176 0.0 1.0 0.01 0.13 0.01 89
20260505073004 57 119 0.0 2.0 0.01 0.13 0.01 88
20260505072504 56 130 0.0 2.0 0.00 0.12 0.00 88
20260505072004 56 133 0.0 2.0 0.00 0.12 0.00 88
20260505071504 56 130 1.0 2.0 0.00 0.12 0.00 89
20260505071004 56 135 0.0 2.0 0.00 0.12 0.00 89
20260505070504 56 135 0.0 2.0 0.00 0.12 0.00 89
20260505070004 56 135 0.0 3.0 0.00 0.12 0.00 89
20260505065504 56 135 0.0 3.0 0.00 0.12 0.00 90
20260505065004 56 130 2.0 3.0 0.00 0.12 0.00 90
20260505064504 56 127 0.0 2.0 0.00 0.12 0.00 90
20260505064004 56 135 0.0 2.0 0.00 0.12 0.00 91
20260505063504 56 135 0.0 2.0 0.00 0.12 0.00 91
20260505063004 56 129 0.0 2.0 0.00 0.12 0.00 91
20260505062504 56 166 0.0 2.0 0.00 0.12 0.00 91
20260505062004 56 225 0.0 1.0 0.00 0.12 0.00 92
20260505061504 56 164 0.0 2.0 0.00 0.12 0.00 92
20260505061004 56 138 0.0 2.0 0.00 0.12 0.00 92
20260505060504 55 135 0.0 2.0 0.00 0.12 0.00 93
20260505060004 55 135 0.0 2.0 0.00 0.12 0.00 93
20260505055504 55 135 0.0 2.0 0.00 0.12 0.00 93
20260505055004 55 135 0.0 2.0 0.00 0.12 0.00 93
20260505054504 55 135 1.0 2.0 0.00 0.12 0.00 93
20260505054004 55 135 0.0 2.0 0.00 0.12 0.00 93
20260505053504 55 315 0.0 1.0 0.00 0.12 0.00 93
20260505053004 55 315 0.0 1.0 0.00 0.12 0.00 93
20260505052504 55 0 0.0 0.0 0.00 0.12 0.00 93
20260505052004 55 0 0.0 0.0 0.00 0.12 0.00 93
20260505051504 54 315 0.0 1.0 0.00 0.12 0.00 93
20260505051004 54 315 0.0 1.0 0.00 0.12 0.00 93
20260505050504 54 310 0.0 1.0 0.00 0.12 0.00 93
20260505041504 54 113 0.0 3.0 0.00 0.12 0.00 93
20260505041004 54 123 1.0 2.0 0.00 0.12 0.00 93
20260505040504 54 135 0.0 2.0 0.00 0.12 0.00 94
20260505040004 54 135 0.0 2.0 0.00 0.12 0.00 94
20260505035504 54 135 0.0 2.0 0.00 0.12 0.00 94
20260505035004 54 130 0.0 4.0 0.00 0.12 0.00 94
20260505034504 54 131 0.0 4.0 0.00 0.12 0.00 94
20260505034004 54 135 0.0 2.0 0.00 0.12 0.00 94
20260505033504 54 135 0.0 2.0 0.00 0.12 0.00 94
20260505033004 54 144 0.0 2.0 0.00 0.12 0.00 95
20260505032504 54 184 0.0 1.0 0.00 0.12 0.00 95
20260505032004 54 151 0.0 2.0 0.00 0.12 0.00 95
20260505031504 54 136 0.0 2.0 0.00 0.12 0.00 95
20260505031004 54 135 0.0 1.0 0.00 0.12 0.00 96
20260505030504 55 135 0.0 2.0 0.00 0.12 0.00 96
20260505030004 55 137 0.0 2.0 0.00 0.12 0.00 96
20260505025504 55 133 0.0 4.0 0.00 0.12 0.00 96
20260505025004 55 132 0.0 4.0 0.00 0.12 0.00 96
20260505024504 55 135 2.0 4.0 0.00 0.12 0.00 97
20260505024004 55 135 0.0 2.0 0.00 0.12 0.00 96
20260505023504 55 135 0.0 2.0 0.00 0.12 0.00 97
20260505023004 55 135 0.0 2.0 0.00 0.12 0.00 97
20260505022504 55 135 0.0 1.0 0.00 0.12 0.00 97
20260505022004 55 122 0.0 2.0 0.00 0.12 0.00 97
20260505021504 55 125 0.0 2.0 0.00 0.12 0.00 97
20260505021004 55 132 0.0 2.0 0.00 0.12 0.00 97
20260505020504 55 130 0.0 2.0 0.00 0.12 0.00 98
20260505020004 55 118 0.0 2.0 0.00 0.12 0.00 98
20260505015504 55 135 0.0 2.0 0.00 0.12 0.00 98
20260505015003 55 135 0.0 2.0 0.00 0.12 0.00 98
20260505014504 55 135 0.0 2.0 0.00 0.12 0.00 98
20260505014004 55 135 0.0 2.0 0.00 0.12 0.00 98
20260505013503 55 135 0.0 2.0 0.00 0.12 0.00 98
20260505013004 55 135 0.0 1.0 0.00 0.12 0.00 98
20260505012503 55 135 0.0 2.0 0.00 0.12 0.00 98
20260505012004 55 135 0.0 2.0 0.00 0.12 0.00 98
20260505011503 55 135 0.0 2.0 0.00 0.12 0.00 98
20260505011004 55 135 0.0 2.0 0.00 0.12 0.00 98
20260505010503 55 135 0.0 2.0 0.00 0.12 0.00 98
20260505010004 55 148 0.0 2.0 0.00 0.12 0.00 98
20260505005503 55 151 0.0 2.0 0.00 0.12 0.00 98
20260505005004 55 147 0.0 1.0 0.00 0.12 0.00 97
20260505004503 55 147 0.0 1.0 0.00 0.12 0.00 97
20260505004004 55 135 0.0 1.0 0.00 0.12 0.00 97
20260505003503 55 128 0.0 2.0 0.00 0.12 0.00 96
20260505003003 55 130 0.0 2.0 0.00 0.12 0.00 96
20260505002503 55 141 0.0 2.0 0.00 0.12 0.00 95
20260505002003 55 140 0.0 2.0 0.00 0.12 0.00 95
20260505001503 55 137 0.0 2.0 0.00 0.12 0.00 95
20260505001003 55 135 0.0 2.0 0.00 0.12 0.00 94
20260505000503 55 134 1.0 3.0 0.00 0.12 0.00 94
20260505000004 55 133 1.0 3.0 0.00 0.12 0.00 94
20260504235503 55 141 0.0 2.0 0.00 0.12 0.00 93
20260504235003 55 141 0.0 2.0 0.00 0.12 0.00 93
20260504234503 55 135 0.0 2.0 0.00 0.12 0.00 93
20260504234003 56 135 0.0 2.0 0.00 0.12 0.00 93
20260504233503 56 135 0.0 2.0 0.00 0.12 0.00 93
20260504233003 56 135 0.0 2.0 0.00 0.12 0.00 93
20260504232503 56 164 0.0 1.0 0.00 0.12 0.00 92
20260504232003 56 225 0.0 1.0 0.00 0.12 0.00 92
20260504231503 56 135 0.0 1.0 0.00 0.12 0.00 92
20260504231003 56 135 0.0 1.0 0.00 0.12 0.00 92
20260504230503 56 0 0.0 0.0 0.00 0.12 0.00 91
20260504230004 56 0 0.0 0.0 0.00 0.12 0.00 91
20260504225503 56 0 0.0 0.0 0.00 0.12 0.00 91
20260504225003 56 0 0.0 0.0 0.00 0.12 0.00 91
20260504224503 56 0 0.0 0.0 0.00 0.12 0.00 91
20260504224003 56 0 0.0 0.0 0.00 0.12 0.00 90
20260504223503 56 0 0.0 0.0 0.00 0.12 0.00 90
20260504223003 57 0 0.0 0.0 0.00 0.12 0.00 90
20260504222504 57 0 0.0 0.0 0.00 0.12 0.00 90
20260504222003 57 0 0.0 0.0 0.00 0.12 0.00 90
20260504221503 56 0 0.0 0.0 0.00 0.12 0.00 89
20260504221003 56 0 0.0 0.0 0.00 0.12 0.00 89
20260504220503 57 135 0.0 1.0 0.00 0.12 0.00 89
20260504220004 57 135 0.0 1.0 0.00 0.12 0.00 89
20260504215503 57 135 0.0 1.0 0.00 0.12 0.12 88
20260504215003 57 135 0.0 1.0 0.00 0.12 0.12 88
20260504214503 57 135 0.0 1.0 0.00 0.12 0.12 88
20260504214003 57 135 0.0 1.0 0.00 0.12 0.12 88
20260504213503 57 131 0.0 1.0 0.00 0.12 0.12 88
20260504213003 58 127 0.0 2.0 0.00 0.12 0.12 88
20260504212503 58 132 0.0 2.0 0.00 0.12 0.12 88
20260504212003 58 135 0.0 2.0 0.00 0.12 0.12 87
20260504211503 58 135 0.0 2.0 0.00 0.12 0.12 87
20260504211003 58 135 0.0 1.0 0.00 0.12 0.12 87
20260504210503 58 135 0.0 2.0 0.00 0.12 0.12 87
20260504210004 58 135 0.0 2.0 0.00 0.12 0.12 87
20260504205503 58 135 0.0 1.0 0.00 0.12 0.12 87
20260504205003 58 135 0.0 1.0 0.00 0.12 0.12 86
20260504204503 58 135 0.0 1.0 0.00 0.12 0.12 86
20260504204003 58 135 0.0 2.0 0.00 0.12 0.12 86
20260504203503 58 135 0.0 2.0 0.00 0.12 0.12 85
20260504203003 58 135 0.0 2.0 0.00 0.12 0.12 85
20260504202503 58 135 0.0 2.0 0.00 0.12 0.12 85
20260504202003 58 135 1.0 2.0 0.00 0.12 0.12 85
20260504201503 58 24 0.0 2.0 0.00 0.12 0.12 84
20260504201003 58 356 0.0 2.0 0.00 0.12 0.12 84
20260504200503 58 327 1.0 2.0 0.00 0.12 0.12 83
20260504200003 58 282 1.0 2.0 0.00 0.12 0.12 83
20260504195503 58 277 0.0 2.0 0.00 0.12 0.12 83
20260504195003 58 153 0.0 2.0 0.00 0.12 0.12 83
20260504194503 59 136 0.0 2.0 0.00 0.12 0.12 83
20260504194003 59 135 0.0 2.0 0.00 0.12 0.12 83
20260504193503 59 135 0.0 2.0 0.00 0.12 0.12 83
20260504193003 59 135 0.0 2.0 0.00 0.12 0.12 83
20260504192503 59 135 0.0 2.0 0.00 0.12 0.12 83
20260504192003 59 135 0.0 1.0 0.00 0.12 0.12 82
20260504191503 59 135 0.0 1.0 0.00 0.12 0.12 82
20260504191003 59 0 0.0 0.0 0.00 0.12 0.12 82
20260504190504 59 135 0.0 2.0 0.00 0.12 0.12 82
20260504190003 59 135 0.0 2.0 0.00 0.12 0.12 82
20260504185503 59 135 1.0 2.0 0.00 0.12 0.12 81
20260504185003 59 135 0.0 2.0 0.00 0.12 0.12 81
20260504184503 59 133 0.0 2.0 0.00 0.12 0.12 81
20260504184003 59 133 1.0 2.0 0.00 0.12 0.12 82
20260504183503 59 135 0.0 2.0 0.00 0.12 0.12 81
20260504183003 59 135 0.0 2.0 0.00 0.12 0.12 81
20260504182503 60 135 0.0 2.0 0.00 0.12 0.12 81
20260504182003 60 129 0.0 2.0 0.00 0.12 0.12 81
20260504181503 60 126 0.0 2.0 0.01 0.12 0.12 81
20260504181003 60 135 0.0 2.0 0.01 0.12 0.12 81
20260504180503 60 135 0.0 2.0 0.01 0.12 0.12 81
20260504180003 60 139 0.0 2.0 0.01 0.12 0.12 81
20260504175503 60 158 0.0 1.0 0.01 0.12 0.12 81
20260504175003 60 135 0.0 1.0 0.01 0.12 0.12 80
20260504174503 60 135 0.0 1.0 0.01 0.12 0.12 80
20260504174003 59 0 0.0 0.0 0.02 0.12 0.12 79
20260504173503 59 247 0.0 1.0 0.02 0.12 0.12 79
20260504173003 59 237 0.0 2.0 0.02 0.12 0.12 79
20260504172503 59 222 0.0 2.0 0.04 0.12 0.12 79
20260504172003 59 262 0.0 1.0 0.05 0.12 0.12 78
20260504171503 59 302 0.0 1.0 0.04 0.11 0.11 77
20260504171003 59 0 0.0 0.0 0.05 0.11 0.11 77
20260504170503 59 0 0.0 0.0 0.06 0.11 0.11 76
20260504151005 64 307 1.0 6.0 0.00 0.00 0.00 49
20260504150505 64 303 0.0 4.0 0.00 0.00 0.00 47
20260504141005 67 89 0.0 4.0 0.00 0.00 0.00 37
20260504140505 67 123 1.0 4.0 0.00 0.00 0.00 35
20260504130505 70 243 0.0 2.0 0.00 0.00 0.00 24